GW4962 Weather Reports


time (UTC)temp
C
wind
direction
speed
KPH
gust
KPH
rain 1hr
cm
rain 24hr
cm
rain mn
cm
humidity
%
barometer
mb
20260901023043 25 0 0.0 0.0 0.00 0.00 0.00 74 1014.8
20260901021545 25 0 0.0 0.0 0.00 0.00 0.00 72 1014.7
20260901020043 25 0 0.0 0.0 0.00 0.00 0.00 70 1014.7
20260901014546 26 0 0.0 0.0 0.00 0.00 0.00 68 1014.5
20260901013042 26 0 0.0 0.0 0.00 0.00 0.00 67 1014.4
20260901011553 27 0 0.0 1.6 0.00 0.00 0.00 65 1014.4
20260901010047 27 0 0.0 1.6 0.00 0.00 0.00 62 1014.2
20260901004546 28 0 0.0 1.6 0.00 0.00 0.00 60 1014.2
20260901003050 29 107 0.0 6.4 0.00 0.00 0.00 58 1014.3
20260901001544 30 0 0.0 6.4 0.00 0.00 0.00 54 1014.2
20260901000044 30 0 0.0 6.4 0.00 0.00 0.00 51 1014.1
20260831234547 30 44 0.0 6.4 0.00 0.00 0.00 49 1014.0
20260831233044 31 0 0.0 6.4 0.00 0.00 0.00 47 1014.0
20260831231542 31 159 0.0 3.2 0.00 0.00 0.00 43 1014.1
20260831230047 31 177 0.0 6.4 0.00 0.00 0.00 43 1014.0
20260831224544 32 204 0.0 4.8 0.00 0.00 0.00 42 1014.0
20260831223044 32 93 1.6 4.8 0.00 0.00 0.00 40 1013.9
20260831221545 33 217 1.6 6.4 0.00 0.00 0.00 38 1014.0
20260831220056 33 105 0.0 8.0 0.00 0.00 0.00 39 1014.1
20260831214547 33 211 0.0 3.2 0.00 0.00 0.00 38 1014.2
20260831213045 33 0 0.0 6.4 0.00 0.00 0.00 38 1014.3
20260831211543 33 268 0.0 9.7 0.00 0.00 0.00 40 1014.5
20260831210044 33 228 3.2 9.7 0.00 0.00 0.00 37 1014.4
20260831204555 33 264 1.6 4.8 0.00 0.00 0.00 36 1014.6
20260831203057 33 172 1.6 9.7 0.00 0.00 0.00 40 1014.5
20260831201547 33 163 3.2 6.4 0.00 0.00 0.00 40 1014.5
20260831200051 32 0 0.0 3.2 0.00 0.00 0.00 44 1014.5
20260831194543 32 0 0.0 4.8 0.00 0.00 0.00 41 1014.4
20260831193046 32 0 0.0 4.8 0.00 0.00 0.00 43 1014.4
20260831191548 31 98 0.0 4.8 0.00 0.00 0.00 49 1014.6
20260831184541 32 207 0.0 3.2 0.00 0.00 0.00 50 1014.6
20260831183040 30 206 0.0 1.6 0.00 0.00 0.00 53 1014.8
20260831181554 29 0 0.0 6.4 0.00 0.00 0.00 58 1014.7
20260831180043 29 71 0.0 4.8 0.00 0.00 0.00 59 1014.7
20260831174550 29 19 0.0 4.8 0.00 0.00 0.00 61 1015.0
20260831173044 28 0 0.0 3.2 0.00 0.00 0.00 65 1015.2
20260831171544 28 0 0.0 1.6 0.00 0.00 0.00 67 1015.3
20260831170045 27 62 0.0 6.4 0.00 0.00 0.00 69 1015.2
20260831164544 26 171 0.0 8.0 0.00 0.00 0.00 72 1015.0
20260831163046 25 57 1.6 6.4 0.00 0.00 0.00 73 1015.0
20260831161545 25 57 1.6 8.0 0.00 0.00 0.00 73 1015.0
20260831160115 25 55 1.6 6.4 0.00 0.00 0.00 75 1015.1
20260831154610 25 63 0.0 8.0 0.00 0.00 0.00 77 1015.1
20260831153119 24 0 0.0 4.8 0.00 0.00 0.00 83 1015.1
20260831151545 23 0 0.0 4.8 0.00 0.00 0.00 84 1015.0
20260831150044 22 0 0.0 4.8 0.00 0.00 0.00 86 1014.7
20260831144544 22 0 0.0 4.8 0.00 0.00 0.00 87 1014.6
20260831143053 22 62 0.0 4.8 0.00 0.00 0.00 89 1014.4
20260831141545 21 0 0.0 3.2 0.00 0.00 0.00 90 1014.2
20260831140044 21 0 0.0 3.2 0.00 0.00 0.00 91 1014.2
20260831134546 21 262 0.0 0.0 0.00 0.00 0.00 92 1013.9
20260831133044 21 0 0.0 8.0 0.00 0.00 0.00 94 1013.7
20260831131542 21 324 0.0 3.2 0.00 0.00 0.00 95 1013.3
20260831130056 21 0 0.0 1.6 0.00 0.00 0.00 96 1013.0
20260831124546 21 0 0.0 1.6 0.00 0.00 0.00 96 1012.9
20260831123049 21 0 0.0 3.2 0.00 0.00 0.00 96 1012.4
20260831121549 21 0 0.0 1.6 0.00 0.00 0.00 96 1012.2
20260831120139 21 93 0.0 4.8 0.00 0.00 0.00 95 1011.7
20260831114544 21 0 0.0 4.8 0.00 0.00 0.00 95 1011.5
20260831113043 21 0 1.6 6.4 0.00 0.00 0.00 94 1011.5
20260831111547 21 64 0.0 6.4 0.00 0.00 0.00 94 1011.2
20260831110045 21 0 1.6 9.7 0.00 0.00 0.00 94 1011.2
20260831104542 21 68 0.0 6.4 0.00 0.00 0.00 94 1011.4
20260831103048 21 107 1.6 8.0 0.00 0.00 0.00 93 1011.1
20260831101548 21 91 0.0 4.8 0.00 0.00 0.00 91 1010.9
20260831100050 21 332 1.6 6.4 0.00 0.00 0.00 89 1010.8
20260831094550 21 0 0.0 3.2 0.00 0.00 0.00 88 1010.7
20260831093044 21 0 0.0 3.2 0.00 0.00 0.00 87 1010.5
20260831091544 22 0 0.0 6.4 0.00 0.00 0.00 88 1010.0
20260831090046 21 0 0.0 0.0 0.00 0.00 0.00 92 1009.9
20260831084547 21 0 0.0 1.6 0.00 0.00 0.00 91 1009.6
20260831083053 22 0 0.0 8.0 0.00 0.00 0.00 91 1009.7
20260831081556 22 0 0.0 4.8 0.00 0.00 0.00 91 1009.7
20260831080046 22 264 0.0 4.8 0.00 0.00 0.00 90 1009.3
20260831074543 22 254 0.0 6.4 0.00 0.00 0.00 91 1009.4
20260831073047 22 263 0.0 4.8 0.00 0.00 0.00 92 1009.4
20260831071544 22 0 0.0 3.2 0.00 0.00 0.00 92 1009.2
20260831070108 22 199 0.0 3.2 0.00 0.00 0.00 92 1009.1
20260831064544 22 0 0.0 3.2 0.00 0.00 0.00 92 1009.1
20260831063042 22 0 0.0 1.6 0.00 0.00 0.00 91 1009.3
20260831061544 23 0 0.0 3.2 0.00 0.00 0.00 91 1009.4
20260831060058 23 225 0.0 1.6 0.00 0.00 0.00 90 1009.5
20260831054545 23 0 0.0 1.6 0.00 0.00 0.00 89 1009.2
20260831053046 23 188 0.0 3.2 0.00 0.00 0.00 89 1009.4
20260831051557 23 167 0.0 1.6 0.00 0.00 0.00 88 1009.3
20260831050049 24 166 0.0 3.2 0.00 0.00 0.00 87 1009.2
20260831044546 24 207 0.0 3.2 0.00 0.00 0.00 86 1009.4
20260831043044 25 198 0.0 4.8 0.00 0.00 0.00 85 1009.4
20260831041546 25 237 0.0 4.8 0.00 0.00 0.00 85 1009.4
20260831040049 25 203 0.0 3.2 0.00 0.00 0.00 84 1009.2
20260831034544 25 0 0.0 1.6 0.00 0.00 0.00 84 1009.2
20260831033042 25 200 0.0 4.8 0.00 0.00 0.00 83 1009.2
20260831031547 25 201 0.0 3.2 0.00 0.00 0.00 81 1009.1
20260831030045 26 190 0.0 3.2 0.00 0.00 0.00 78 1009.0
20260831024554 26 207 1.6 6.4 0.00 0.00 0.00 76 1008.9